Location: Atbuku
(36.4936°N, 30.4362°E)
Time: 18:03:08
(UTC+00:00)

Cosmos 1980 Rocket - Pass Details

Date: 11 December 2025
Orbit: 830 x 847 km, 71.0° (Epoch: 15 January)

Event Time Altitude Azimuth Distance (km) Brightness Sun altitude
Rises 16:24:43 0° 216° (SW) 3,388 6.1 -19.8°
Reaches altitude 10° 16:27:15 10° 221° (SW) 2,454 5.4 -20.3°
Maximum altitude 16:32:41 48° 296° (WNW) 1,085 3.0 -21.4°
Enters shadow 16:37:39 12° 9° (N) 2,290 4.2 -22.3°
